TIME,DELAY(SENSOR),PRES,T(CTD),SAL,OXYGEN,RAWTEMP,T(OPTODE),TCPHASE,FLUOR,BETA(BETA700),BETA(BETA412),BETA(BETA440),CDOM,C(CSC),ED(ED411.90),ED(ED443.80),ED(ED489.40),ED(ED554.70),LU(LU412.20),LU(LU443.80),LU(LU489.40),LU(LU555.00),COMP,TILTX,TILTX(TILTY),CHECK
1368375173,5804,496.9200134277344000,17.0296001434326170,36.3643989562988300,214.6587066650390600,187.3455963134765600,17.0298194885253900,32.2103614807128900,51,101,95,80,68,10792,2146960118,2147515620,2147271414,2147461101,2147081965,2146952530,2147654774,2147125449,2434,-1,8,30012
1368375290,5804,486.3999938964844000,17.0837001800537100,36.3665008544921900,211.1542053222656200,185.6797027587890600,17.0800495147705080,32.3788108825683600,50,102,95,79,69,10783,2146958381,2147514230,2147271917,2147459611,2147082486,2146954294,2147655305,2147125586,1934,-1,8,25824
1368375417,5804,475.4599914550781000,17.1511993408203120,36.3760986328125000,208.9226989746093800,183.2935943603515600,17.1520004272460940,32.4692611694335940,51,101,96,81,69,10785,2146958070,2147514221,2147270125,2147459419,2147080484,2146954998,2147656603,2147123346,1549,-1,8,40504
1368375546,5806,464.3999938964844000,17.2539005279541000,36.3946990966796900,208.7276000976562500,179.7657928466797000,17.2583999633789060,32.4311103820800800,51,101,95,80,68,10783,2146960100,2147513078,2147267538,2147455314,2147081325,2146955748,2147656530,2147126774,668,-1,8,44995
1368375673,5808,453.3800048828125000,17.3351001739501950,36.4100990295410160,209.9219055175781200,177.3076019287109400,17.3325405120849600,32.3306999206543000,51,103,95,79,69,10783,2146959808,2147516781,2147266322,2147460132,2147080969,2146955190,2147652379,2147123821,3286,-1,8,44475
1368375800,5805,442.5100097656250000,17.4431991577148440,36.4292984008789060,210.8134002685547000,173.6452941894531200,17.4430198669433600,32.2305488586425800,51,102,95,80,69,10782,2146957796,2147513956,2147267977,2147452114,2147082203,2146954413,2147658121,2147130889,2775,-1,8,16210
1368375929,5806,431.4200134277344000,17.5266990661621100,36.4418983459472660,211.5863952636718800,171.1345977783203000,17.5187702178955080,32.1532707214355500,51,102,96,79,68,10782,2146956379,2147514002,2147266752,2147454427,2147079652,2146953545,2147649481,2147125778,2681,-1,8,14921
1368376056,5805,420.5799865722656000,17.5858001708984380,36.4500999450683600,212.1994018554687500,169.0559997558593800,17.5814895629882800,32.0912208557128900,51,101,96,81,69,10783,2146957641,2147513133,2147264969,2147454281,2147079734,2146959725,2147653339,2147124498,2307,-1,8,4859
1368376185,5804,409.5000000000000000,17.7064990997314450,36.4791984558105500,213.7848052978515600,165.1260986328125000,17.7000904083251950,31.9508800506591800,50,101,95,80,67,10786,2146954304,2147513280,2147266870,2147453851,2147082404,2146957056,2147651693,2147130816,1471,-1,8,55200
1368376312,5805,398.7699890136719000,17.7768993377685550,36.4837989807128900,214.8607025146484400,162.5393066406250000,17.7781791687011720,31.8574409484863280,51,102,97,82,67,10779,2146959588,2147515181,2147262875,2147454098,2147080996,2146952694,2147648969,2147127232,1282,-2,8,46491
1368376451,5806,387.0199890136719000,17.9186000823974600,36.5124015808105500,215.8354949951172000,158.0075073242187500,17.9149894714355470,31.7433204650878900,51,104,97,82,68,10774,2146952457,2147515593,2147267428,2147452699,2147080265,2146958244,2147648310,2147126080,1132,-1,8,879
1368376580,5806,376.2000122070312500,17.9582996368408200,36.5133018493652340,216.7118988037109400,156.6450042724609400,17.9561405181884770,31.6780300140380860,50,105,95,80,68,10779,2146955757,2147514560,2147266331,2147452050,2147082422,2146958326,2147650761,2147135250,788,-1,8,455
1368376707,5806,365.8500061035156000,18.0177993774414060,36.5196990966796900,216.1902008056640600,154.7388000488281200,18.0137004852294920,31.6797294616699220,51,105,94,80,68,10778,2146959469,2147509769,2147265334,2147451181,2147078189,2146959232,2147646701,2147124452,608,-1,8,43090
1368376848,5804,354.8800048828125000,18.1452007293701170,36.5413017272949200,215.0422058105468800,150.4322052001953000,18.1437797546386720,31.6823997497558600,50,104,97,82,68,10774,2146959305,2147512466,2147266651,2147451200,2147081755,2146956406,2147649846,2147125193,3228,-1,8,53327
1368376999,5804,343.5799865722656000,18.2740001678466800,36.5690002441406250,220.3795013427734400,146.1477966308593800,18.2732295989990230,31.3428592681884770,50,103,95,80,67,10772,2146956571,2147511762,2147266523,2147448795,2147084480,2146959021,2147645796,2147130340,2565,-1,8,5689
1368377146,5800,332.0199890136719000,18.3603000640869140,36.5749015808105500,219.8383026123047000,143.2910003662109400,18.3595695495605470,31.3322505950927730,50,105,95,80,68,10776,2146960859,2147515520,2147265371,2147449627,2147083986,2146961490,2147649728,2147129938,2506,-1,8,58168
1368377261,5805,320.8699951171875000,18.4587001800537100,36.5848007202148440,219.1578063964843800,140.1372985839843800,18.4549007415771500,31.3250293731689450,50,105,95,80,67,10771,2146956507,2147514678,2147265627,2147450285,2147081206,2146956297,2147649188,2147132736,2099,-1,8,56036
1368377364,5805,310.3900146484375000,18.5510005950927730,36.5932006835937500,215.9976043701172000,137.1018981933593800,18.5466709136962900,31.4505290985107420,50,106,96,80,67,10774,2146956397,2147513380,2147260635,2147451008,2147077769,2146962477,2147650944,2147128448,2386,-1,9,13911
1368377481,5806,298.6499938964844000,18.6551990509033200,36.6050987243652340,217.4680023193359400,133.7449035644531200,18.6481895446777340,31.3276004791259770,50,103,94,80,69,10770,2146960045,2147515492,2147267840,2147449453,2147077056,2146959469,2147652836,2147128822,1570,-1,8,48321
1368377584,5805,288.3999938964844000,18.7488994598388670,36.6108016967773440,219.8619995117187500,130.3338928222656200,18.7513809204101560,31.1567707061767580,50,105,95,80,68,10764,2146958034,2147515328,2147267602,2147447314,2147078829,2146958354,2147655862,2147127890,1235,-1,8,20264
1368377699,5806,277.0899963378906000,18.8840999603271500,36.6063995361328100,220.8542938232422000,125.9750976562500000,18.8832702636718750,31.0468807220459000,50,105,96,82,67,10765,2146959268,2147512822,2147265910,2147447149,2147076982,2146963437,2147662464,2147128484,1415,-1,8,60404
1368377816,5805,266.0299987792969000,19.0531005859375000,36.6133995056152340,223.4156036376953000,120.6343994140625000,19.0449504852294920,30.8448295593261720,50,107,97,82,68,10765,2146957933,2147514651,2147268214,2147448484,2147080109,2146968795,2147664777,2147130313,464,-1,8,40561
1368377931,5805,255.3300018310547000,19.1923999786376950,36.6172981262207000,224.5503997802734400,116.0373992919921900,19.1841793060302730,30.7264308929443360,51,107,98,83,66,10767,2146956800,2147517714,2147265974,2147446089,2147076297,2146981366,2147692992,2147132617,3253,-1,8,6388
1368378060,5804,243.5700073242187500,19.2747993469238280,36.6071014404296900,231.8137969970703000,113.1819992065429700,19.2706794738769530,30.3298206329345700,50,110,97,82,67,10761,2146954971,2147516242,2147267904,2147446308,2147073856,2146985645,2147704850,2147130349,2792,-1,8,39987
1368378187,5804,232.1999969482422000,19.3425006866455080,36.6036987304687500,237.0016021728515600,110.6724014282226600,19.3467407226562500,30.0488491058349600,50,109,98,83,65,10757,2146956169,2147517284,2147266934,2147446125,2147074011,2147031149,2147786880,2147132416,2800,-1,8,39658
1368378314,5803,221.0399932861328000,19.4829998016357420,36.6045989990234400,242.6268005371093800,106.2169036865234400,19.4818096160888670,29.7296104431152340,51,111,98,84,63,10759,2146959021,2147514550,2147270125,2147444196,2147077851,2147021056,2147744027,2147133193,3369,-1,8,5355
1368378443,5807,209.9400024414062500,19.6212005615234380,36.6141014099121100,242.5256958007812500,101.7916030883789000,19.6160202026367200,29.6766490936279300,52,110,98,84,64,10755,2146961097,2147513709,2147265947,2147443062,2147080932,2147022619,2147752640,2147134912,3024,-2,8,43038
1368378570,5805,199.2700042724609400,19.6523990631103500,36.6083984375000000,246.3737945556640600,100.7231979370117200,19.6484394073486330,29.4886398315429700,53,111,97,83,63,10756,2146955638,2147517202,2147268571,2147443355,2147080987,2147040502,2147771977,2147133394,2044,-1,8,58644
1368378625,5808,194.7200012207031200,19.6954994201660160,36.6109008789062500,247.7879943847656200,99.3283767700195300,19.6907596588134770,29.4073009490966800,53,110,97,83,64,10760,2146957778,2147516443,2147270409,2147439881,2147081892,2147045851,2147785042,2147135323,1770,-1,9,7818
1368378700,5806,188.9100036621093800,19.7597999572753900,36.6110000610351560,247.0968933105468800,97.1024932861328100,19.7583103179931640,29.4095993041992200,52,109,97,81,63,10758,2146961508,2147516955,2147269028,2147442057,2147090075,2147065718,2147813467,2147136804,1880,-1,8,7138
1368378755,5803,185.1199951171875000,19.8344001770019530,36.6170005798339840,247.2180023193359400,94.8000564575195300,19.8281993865966800,29.3746490478515620,53,108,98,82,64,10756,2146957266,2147518857,2147271725,2147443245,2147096265,2147086034,2147839232,2147138788,2148,-1,8,24191
1368378822,5808,180.6600036621093800,19.9015998840332030,36.6189994812011700,247.0402069091797000,92.5145568847656200,19.8975906372070300,29.3530292510986330,54,109,98,84,65,10757,2146957878,2147516964,2147267337,2147440566,2147096576,2147078738,2147836489,2147140324,1686,-1,9,10118
1368378877,5802,177.1000061035156200,19.9659004211425780,36.6273002624511700,246.0160980224609400,90.4554595947265600,19.9601306915283200,29.3723506927490230,54,108,98,83,64,10756,2146958683,2147518070,2147270720,2147440941,2147100653,2147103387,2147866697,2147141092,1516,-1,8,36055
1368378944,5805,172.8300018310547000,20.0419998168945300,36.6316986083984400,247.4046936035156200,87.9251708984375000,20.0369892120361330,29.2779502868652340,59,106,96,83,63,10755,2146957540,2147521024,2147273280,2147442139,2147105005,2147131245,2147909366,2147143570,1073,-1,8,40208
1368379022,5807,168.5099945068359400,20.1413993835449220,36.6469001770019500,250.1293945312500000,84.7870864868164000,20.1323509216308600,29.1173992156982420,61,114,97,82,63,10752,2146958080,2147520841,2147269824,2147444498,2147110637,2147146523,2147921261,2147144054,354,-2,9,22115
1368379113,5805,164.4100036621093800,20.1604003906250000,36.6489982604980500,252.1157989501953000,84.0531234741211000,20.1546592712402340,29.0211696624755860,61,110,96,83,64,10753,2146960073,2147523602,2147272457,2147442971,2147118720,2147189165,2147987675,2147146386,3330,-1,8,42159
1368379192,5805,160.8099975585937500,20.1854991912841800,36.6524009704589840,252.9420928955078000,83.2277908325195300,20.1797504425048830,28.9748497009277340,61,109,97,83,63,10706,2146961691,2147522285,2147276562,2147441746,2147128457,2147230701,2148049691,2147150400,2982,-1,9,19650
1368379283,5808,156.7299957275390600,20.2000007629394530,36.6481018066406250,251.8278961181640600,82.8397064208984400,20.1915493011474600,29.0183105468750000,62,109,96,82,63,10755,2146961417,2147526619,2147285083,2147441298,2147159424,2147378514,2148275163,2147163684,2631,-1,8,31140
1368379376,5804,152.7700042724609400,20.3080997467041000,36.6503982543945300,245.1170043945312500,79.5244064331054700,20.2923603057861330,29.2724895477294920,61,108,98,83,64,10751,2146960539,2147521115,2147275510,2147436937,2147139163,2147246848,2148068315,2147150244,2272,-2,8,6581
1368379479,5807,148.9199981689453000,20.3521003723144530,36.6464004516601560,244.5491027832031200,77.7753982543945300,20.3455600738525400,29.2757301330566400,64,110,97,82,63,10748,2146957184,2147522733,2147277632,2147438582,2147144539,2147263862,2148088630,2147155264,1670,-1,9,28094
1368379594,5806,144.7899932861328000,20.4123001098632800,36.6547012329101560,244.3412017822265600,75.5781097412109400,20.4124107360839840,29.2570304870605470,66,110,97,82,64,10749,2146958134,2147520091,2147276352,2147436214,2147149229,2147271990,2148095259,2147154121,1211,-2,9,50183
1368379693,5805,140.5099945068359400,20.4510993957519530,36.6459007263183600,242.5579071044922000,74.4263610839843800,20.4474601745605470,29.3229408264160160,66,110,96,82,64,10747,2146958674,2147522450,2147280292,2147439049,2147161792,2147312466,2148143808,2147157184,1122,-1,9,56146
1368379772,5804,136.3600006103515600,20.4710998535156250,36.6417007446289060,247.7422943115234400,73.8243789672851600,20.4657802581787100,29.0826301574707030,69,111,97,81,63,10745,2146961782,2147523648,2147277833,2147438326,2147173394,2147318619,2148151597,2147158025,696,-2,9,53097
1368379851,5806,132.0700073242187500,20.4913997650146500,36.6400985717773440,250.1743011474609400,73.0806732177734400,20.4884204864501950,28.9661693572998050,74,108,97,81,63,10745,2146959012,2147523611,2147278006,2147439899,2147174171,2147316434,2148135305,2147159350,293,-2,9,14663
1368379918,5805,128.3600006103515600,20.5168991088867200,36.6407012939453100,251.1125946044922000,72.2827835083007800,20.5126991271972660,28.9151000976562500,75,111,98,83,64,10737,2146962761,2147522889,2147278774,2147438418,2147179812,2147317824,2148133174,2147157705,205,-1,8,38882
1368379987,5806,124.5699996948242200,20.5401992797851560,36.6431007385253900,251.4131927490234400,71.4028625488281200,20.5394897460937500,28.8908996582031250,78,111,97,83,63,10736,2146961316,2147525458,2147279085,2147440320,2147190061,2147330688,2148145517,2147156544,126,-1,9,51667
1368380066,5806,120.2200012207031200,20.5387992858886720,36.6337013244628900,250.5218963623047000,71.5868682861328100,20.5338897705078120,28.9320507049560550,80,113,98,83,62,10732,2146958454,2147525467,2147281216,2147435849,2147206107,2147353188,2148179099,2147163044,21,-1,9,12362
1368380133,5805,116.4899978637695300,20.5524997711181640,36.6302986145019500,251.3858947753906200,71.1260070800781200,20.5479202270507800,28.8885307312011720,85,111,98,82,63,10727,2146961261,2147525723,2147284251,2147439186,2147220672,2147387840,2148220955,2147167003,68,-1,8,907
1368380212,5803,112.1600036621093800,20.5604991912841800,36.6234016418457000,251.9691925048828000,70.7924194335937500,20.5580806732177730,28.8589897155761720,92,113,97,83,64,10722,2146958637,2147527094,2147285622,2147437869,2147244150,2147428553,2148267382,2147166893,3410,-2,9,11123
1368380281,5804,108.5199966430664000,20.5974998474121100,36.6255989074707000,252.7667999267578000,69.7299728393554700,20.5904293060302730,28.8109607696533200,99,116,99,83,65,10717,2146959030,2147528987,2147283291,2147436187,2147261092,2147461714,2148316141,2147172891,3092,-1,9,42209
1368380360,5806,104.5899963378906200,20.6172008514404300,36.6272010803222660,253.5433044433593800,69.0199966430664000,20.6120491027832030,28.7685909271240230,101,114,99,84,63,10713,2146963648,2147531501,2147292699,2147438555,2147300909,2147535798,2148413613,2147180681,2755,-1,8,32561
1368380451,5802,100.3700027465820300,20.6742000579834000,36.6313018798828100,254.6049957275390600,67.2872085571289000,20.6648292541503900,28.7011203765869140,106,115,97,84,64,10714,2146961097,2147536365,2147295515,2147438144,2147350729,2147633764,2148539556,2147193142,2358,-2,9,65051
1368380506,5804,98.0100021362304700,20.6823005676269530,36.6311988830566400,254.9822998046875000,66.8209381103515600,20.6790294647216800,28.6790695190429700,108,124,98,83,65,10711,2146968603,2147535305,2147296347,2147436772,2147363739,2147658934,2148561353,2147193088,2213,-2,9,16292
1368380561,5804,95.6999969482421900,20.7185001373291000,36.6333007812500000,253.6596984863281200,65.7600631713867200,20.7113494873046880,28.7224292755126950,119,117,98,84,64,10701,2146967085,2147534107,2147294564,2147436297,2147371940,2147638765,2148540635,2147192064,2166,-1,9,49870
1368380618,5807,93.3199996948242200,20.7304000854492200,36.6290016174316400,252.8625030517578000,65.3613662719726600,20.7234992980957030,28.7517509460449220,123,118,97,84,64,10694,2146964973,2147533933,2147294189,2147435766,2147377554,2147629604,2148512109,2147193042,2362,-2,9,54274
1368380673,5802,91.0299987792968800,20.7773990631103500,36.6288986206054700,253.1251068115234400,63.8730697631835940,20.7688503265380860,28.7216091156005860,123,121,98,82,61,10702,2146963684,2147533065,2147295186,2147440100,2147385627,2147628004,2148506285,2147193024,2532,-1,9,63041
1368380728,5807,88.7600021362304700,20.7996006011962900,36.6257019042968750,253.4703979492187500,62.9144706726074200,20.7980709075927730,28.6945705413818360,135,124,99,85,64,10691,2146966628,2147534518,2147296832,2147435629,2147406326,2147663424,2148548169,2147201499,2776,-2,9,55026
1368380783,5801,86.5500030517578100,20.8131008148193360,36.6213989257812500,254.0473022460937500,62.4992485046386700,20.8107204437255860,28.6645298004150400,146,117,99,84,64,10688,2146968173,2147534564,2147299849,2147439588,2147446006,2147721572,2148627126,2147209298,2849,-2,8,60821
1368380838,5803,84.6100006103515600,20.8971004486084000,36.6277008056640600,253.5852966308593800,60.0749816894531250,20.8846302032470700,28.6539306640625000,144,120,97,83,64,10687,2146969737,2147537344,2147304512,2147437952,2147498998,2147811547,2148745481,2147219364,2532,-2,9,5525
1368380893,5807,82.9100036621093800,20.9272994995117200,36.6310997009277340,253.2091979980468800,58.9307098388671900,20.9195194244384770,28.6556491851806640,143,121,100,85,63,10671,2146971748,2147540516,2147310336,2147438976,2147559853,2147916187,2148892918,2147234569,2267,-2,9,19668
1368380971,5804,80.2399978637695300,21.0009994506835940,36.6380996704101560,252.7760925292968800,56.3019714355468750,20.9997005462646500,28.6412506103515620,149,126,99,83,64,10641,2146971126,2147545984,2147320100,2147437156,2147685604,2148119131,2149149312,2147262473,2335,-2,9,43697
1368381026,5806,77.9100036621093800,21.1795005798339840,36.6228981018066400,253.8408050537109400,50.5727310180664060,21.1745605468750000,28.5233592987060550,153,124,100,85,62,10659,2146977755,2147553828,2147336064,2147438720,2147822509,2148345846,2149423314,2147288850,1841,-2,9,25370
1368381081,5806,75.8700027465820300,21.3143997192382800,36.6362991333007800,254.8273010253906200,46.4566802978515600,21.3002796173095700,28.4297199249267580,139,130,99,83,64,10665,2146985600,2147560155,2147345974,2147439716,2147970706,2148578093,2149704374,2147325796,1274,-2,9,31856
1368381136,5803,74.0299987792968800,21.4510002136230470,36.6553993225097660,253.5601959228515600,42.0981101989746100,21.4334793090820300,28.4292392730712900,140,122,98,85,64,10673,2146989632,2147566948,2147357366,2147439579,2148123867,2148808658,2149968164,2147353901,859,-1,9,16923
1368381203,5805,71.7600021362304700,21.5361003875732420,36.6660995483398440,251.9844970703125000,39.0694007873535160,21.5261001586914060,28.4587192535400400,139,118,97,85,63,10655,2146996361,2147575625,2147377106,2147444598,2148339949,2149130651,2150344201,2147395629,523,-1,8,58674
1368381282,5805,68.4499969482421900,21.5867004394531250,36.6624984741210940,251.3155059814453000,36.9532508850097660,21.5908298492431640,28.4611091613769530,138,125,99,86,63,10653,2147008438,2147600036,2147413942,2147447643,2148798445,2149805732,2151131382,2147489728,1090,-1,9,34809
1368381337,5803,65.4400024414062500,21.6282005310058600,36.6629981994628900,251.3303985595703000,35.8681793212890600,21.6240291595459000,28.4468708038330080,133,122,100,85,64,10648,2147024539,2147619172,2147445366,2147448192,2149242541,2150454582,2151865444,2147580909,1363,-1,9,38718
1368381392,5802,62.5000000000000000,21.6534996032714840,36.6632995605468750,251.1589965820312500,34.9682006835937500,21.6515808105468750,28.4430809020996100,131,129,100,85,64,10654,2147040100,2147640128,2147479981,2147454674,2149736969,2151168758,2152653577,2147683245,1541,-1,9,55238
1368381447,5805,59.7599983215332000,21.6709003448486330,36.6660995483398440,251.9842987060547000,34.4084091186523440,21.6687107086181640,28.4005107879638670,130,123,101,84,64,10644,2147058304,2147663424,2147514688,2147455542,2150269933,2151896009,2153414006,2147787529,1509,-2,9,32586
1368381502,5804,57.0099983215332000,21.6989002227783200,36.6646995544433600,252.2669067382812500,33.3934593200683600,21.6997795104980470,28.3756294250488280,139,125,101,85,63,10636,2147078912,2147686902,2147555264,2147461101,2150874532,2152710582,2154216923,2147903789,1419,-1,8,23371
1368381557,5804,54.4000015258789060,21.7502002716064450,36.6631011962890600,253.2483978271484400,31.9021091461181640,21.7454395294189450,28.3152008056640620,121,127,101,86,62,10637,2147103716,2147720548,2147598281,2147464914,2151624457,2153702016,2155189705,2148053540,1326,-2,8,54153
1368381700,5806,48.2999992370605500,21.8817005157470700,36.6422004699707000,253.1869964599609400,27.6323509216308600,21.8762302398681640,28.2645397186279300,119,134,104,89,62,10578,2147194898,2147840813,2147770249,2147491318,2154492854,2157468041,2158924800,2148671570,1153,-1,9,11977
1368381734,5804,46.5400009155273440,21.9298000335693360,36.6380996704101560,252.7649993896484400,25.5633106231689450,21.9396400451660160,28.2566394805908200,114,132,104,88,63,10594,2147233444,2147892105,2147839305,2147500882,2155664265,2158997522,2160382701,2148927908,1031,-1,9,40152
1368381767,5807,44.5900001525878900,22.0284996032714840,36.6325988769531250,253.6235046386718800,23.2248001098632800,22.0113391876220700,28.1909904479980470,106,134,105,89,62,10598,2147279305,2147954971,2147918016,2147512667,2157029595,2160776758,2162132507,2149198912,979,-2,8,57978
1368381800,5807,42.6800003051757800,22.0520992279052730,36.6327018737793000,254.0401000976562500,22.0008602142334000,22.0488700866699220,28.1580200195312500,104,139,106,88,62,10602,2147332736,2148013577,2147996608,2147527707,2158463890,2162541001,2163770770,2149543616,812,-2,8,32579
1368381845,5806,40.2099990844726560,22.1193008422851560,36.6315002441406250,255.9985961914062500,20.0522003173828120,22.1086502075195300,28.0513191223144530,102,135,104,89,64,10590,2147413558,2148111625,2148120356,2147548836,2160881718,2165559186,2166594596,2150076918,821,-1,9,56579
1368381878,5806,38.5200004577636700,22.1368007659912100,36.6291999816894500,256.3037109375000000,19.3214797973632800,22.1310691833496100,28.0295505523681640,102,132,104,88,63,10591,2147477211,2148181851,2148216036,2147564361,2162649947,2167740269,2168603346,2150475529,890,-1,10,27004
1368381925,5808,36.2700004577636700,22.1476993560791000,36.6153984069824200,261.8848876953125000,18.7227401733398440,22.1494407653808600,27.7910404205322270,94,139,104,88,63,10591,2147571209,2148297782,2148350811,2147588251,2165350912,2170984493,2171496502,2151106880,886,-1,9,689
1368381970,5802,34.5600013732910160,22.1958999633789060,36.6039009094238300,265.6960144042969000,17.2894191741943360,22.1934299468994140,27.6189994812011720,87,135,103,88,60,10602,2147667062,2148408676,2148482276,2147615424,2168032566,2174200932,2174326610,2151677284,1052,-2,8,3370
1368382039,5803,32.9000015258789060,22.2441005706787100,36.5789985656738300,265.0129089355469000,15.6773099899292000,22.2429294586181640,27.6268005371093750,83,138,104,88,62,10605,2147780059,2148537810,2148614756,2147643254,2171101796,2177713289,2177151140,2152274496,1282,-2,9,47984
1368382264,5804,30.7500000000000000,22.3208007812500000,36.5354995727539060,273.7004089355469000,11.9733400344848630,22.3566894531250000,27.2384300231933600,76,140,107,92,61,10594,2148090752,2148868608,2148980854,2147714093,2180326025,2188041106,2185061650,2153819968,1588,-3,8,38762
1368382321,5803,28.6800003051757800,22.4850006103515620,36.4894981384277340,272.2298889160156000,7.7162590026855470,22.4875392913818360,27.2437992095947270,72,145,107,92,63,10590,2148467072,2149294665,2149470592,2147838089,2191357220,2200770313,2195818761,2156143158,1280,-1,7,50799
1368382378,5803,26.8199996948242200,22.5485992431640620,36.4537010192871100,283.2132873535156000,5.6632518768310550,22.5506706237792970,26.8012104034423830,73,142,105,91,61,10576,2149128219,2150061092,2150392621,2148071515,2211063113,2224349129,2216860699,2160919606,1239,-1,9,65378
